Change the Weather History Date:

Monday, June 24, 2013

  Actual Average Record
Temperature  
Mean Temperature 52 °F -  
Max Temperature 57 °F 62 °F 73 °F (1999)
Min Temperature 46 °F 49 °F 32 °F (2008)
Degree Days  
Heating Degree Days 12    
Growing Degree Days 2 (Base 50)    
Moisture  
Dew Point 45 °F    
Average Humidity 80    
Maximum Humidity 93    
Minimum Humidity 63    
Precipitation  
Precipitation 0.00 in - - ()
Sea Level Pressure  
Sea Level Pressure 30.11 in    
Wind  
Wind Speed 7 mph ()    
Max Wind Speed 13 mph    
Max Gust Speed -    
Visibility 6.2 miles    
Events Rain    
Averages and records for this station are not official NWS values.
T = Trace of Precipitation, MM = Missing Value Source: Averaged Metar Reports

Daily Weather History Graph

Daily Weather History Graph

Search for Another Location

Airport or City:

Trip Planner

Search our weather history database for the weather conditions in past years. The results will help you decide how hot, cold, wet, or windy it might be!

Date:

Astronomy

Jun. 24, 2013 Rise Set
Actual Time 4:17 AM BST 10:19 PM BST
Civil Twilight 3:05 AM BST 11:31 PM BST
Nautical Twilight Sun does not rise Sun does not rise
Astronomical Twilight Sun does not rise Sun does not rise
Moon 10:36 PM BST (6/24) 5:53 AM BST (6/24)
Length of Visible Light 20h 25m
Length of Day
18h 01m
Full, 98% of the Moon is Illuminated
Jun 24
Full
Jun 30
Last Quarter
Jul 8
New
Jul 16
First Quarter
Jul 22
Full

Hourly Weather History & Observations

Time (BST) Temp. Windchill Dew Point Humidity Pressure Visibility Wind Dir Wind Speed Gust Speed Precip Events Conditions
12:20 AM 50.0 °F - 44.6 °F 82% 29.98 in 6.2 mi NW 12.7 mph - N/A   Light Drizzle
12:50 AM 48.2 °F - 44.6 °F 87% 29.98 in 6.2 mi NW 9.2 mph - N/A Rain Light Rain
1:20 AM 48.2 °F - 44.6 °F 87% 29.98 in 6.2 mi WNW 6.9 mph - N/A Rain Light Rain
1:50 AM 48.2 °F - 44.6 °F 87% 30.01 in 6.2 mi WNW 10.4 mph - N/A Rain Light Rain
2:20 AM 48.2 °F - 44.6 °F 87% 30.01 in 6.2 mi WNW 9.2 mph - N/A   Drizzle
2:50 AM 48.2 °F - 44.6 °F 87% 30.01 in 6.2 mi Variable 3.5 mph - N/A Rain Light Rain
3:20 AM 48.2 °F - 46.4 °F 93% 30.01 in 6.2 mi WSW 5.8 mph - N/A Rain Light Rain
3:50 AM 48.2 °F - 44.6 °F 87% 30.01 in 6.2 mi WNW 10.4 mph - N/A   Light Drizzle
4:20 AM 48.2 °F - 44.6 °F 87% 30.04 in 6.2 mi West 8.1 mph - N/A   Unknown
4:50 AM 48.2 °F - 44.6 °F 87% 30.04 in 6.2 mi WNW 4.6 mph - N/A   Mostly Cloudy
5:20 AM 48.2 °F - 44.6 °F 87% 30.04 in 6.2 mi West 5.8 mph - N/A   Mostly Cloudy
5:50 AM 48.2 °F - 46.4 °F 93% 30.04 in 6.2 mi West 4.6 mph - N/A   Scattered Clouds
6:20 AM 48.2 °F - 46.4 °F 93% 30.04 in 6.2 mi WSW 8.1 mph - N/A   Mostly Cloudy
6:50 AM 48.2 °F - 44.6 °F 87% 30.04 in 6.2 mi West 8.1 mph - N/A   Mostly Cloudy
7:20 AM 48.2 °F - 46.4 °F 93% 30.06 in 6.2 mi WSW 6.9 mph - N/A   Mostly Cloudy
7:50 AM 50.0 °F - 46.4 °F 87% 30.06 in 6.2 mi West 6.9 mph - N/A   Mostly Cloudy
8:20 AM 50.0 °F - 44.6 °F 82% 30.06 in 6.2 mi West 5.8 mph - N/A   Mostly Cloudy
8:50 AM 50.0 °F - 44.6 °F 82% 30.06 in 6.2 mi WNW 3.5 mph - N/A   Mostly Cloudy
9:20 AM 50.0 °F - 46.4 °F 87% 30.06 in 6.2 mi West 4.6 mph - N/A   Mostly Cloudy
9:50 AM 51.8 °F - 46.4 °F 82% 30.09 in 6.2 mi West 5.8 mph - N/A   Mostly Cloudy
10:20 AM 51.8 °F - 44.6 °F 76% 30.09 in 6.2 mi West 9.2 mph - N/A   Mostly Cloudy
10:50 AM 53.6 °F - 46.4 °F 77% 30.09 in 6.2 mi West 6.9 mph - N/A   Mostly Cloudy
11:20 AM 51.8 °F - 46.4 °F 82% 30.09 in 6.2 mi West 10.4 mph - N/A   Mostly Cloudy
11:50 AM 55.4 °F - 46.4 °F 72% 30.09 in 6.2 mi West 9.2 mph - N/A   Scattered Clouds
12:20 PM 53.6 °F - 46.4 °F 77% 30.09 in 6.2 mi NW 9.2 mph - N/A   Mostly Cloudy
12:50 PM 55.4 °F - 46.4 °F 72% 30.12 in 6.2 mi NW 5.8 mph - N/A Rain Light Rain Showers
1:20 PM 55.4 °F - 44.6 °F 67% 30.12 in 6.2 mi NW 6.9 mph - N/A   Mostly Cloudy
1:50 PM 53.6 °F - 46.4 °F 77% 30.12 in 6.2 mi West 12.7 mph - N/A Rain Light Rain Showers
2:20 PM 53.6 °F - 46.4 °F 77% 30.12 in 6.2 mi West 11.5 mph - N/A Rain Light Rain Showers
2:50 PM 53.6 °F - 48.2 °F 82% 30.15 in 6.2 mi Variable 2.3 mph - N/A Rain Light Rain Showers
3:20 PM 53.6 °F - 48.2 °F 82% 30.15 in 6.2 mi West 2.3 mph - N/A   Mostly Cloudy
3:50 PM 55.4 °F - 46.4 °F 72% 30.15 in 6.2 mi WNW 10.4 mph - N/A   Scattered Clouds
4:20 PM 57.2 °F - 44.6 °F 63% 30.15 in 6.2 mi West 11.5 mph - N/A   Scattered Clouds
4:50 PM 55.4 °F - 44.6 °F 67% 30.15 in 6.2 mi West 12.7 mph - N/A   Scattered Clouds
5:20 PM 55.4 °F - 44.6 °F 67% 30.15 in 6.2 mi West 11.5 mph - N/A   Mostly Cloudy
5:50 PM 55.4 °F - 42.8 °F 63% 30.15 in 6.2 mi West 12.7 mph - N/A   Mostly Cloudy
6:20 PM 55.4 °F - 44.6 °F 67% 30.18 in 6.2 mi WNW 4.6 mph - N/A   Scattered Clouds
6:50 PM 55.4 °F - 44.6 °F 67% 30.18 in 6.2 mi West 11.5 mph - N/A   Scattered Clouds
7:20 PM 53.6 °F - 44.6 °F 72% 30.18 in 6.2 mi WNW 9.2 mph - N/A   Mostly Cloudy
7:50 PM 53.6 °F - 46.4 °F 77% 30.18 in 6.2 mi NW 6.9 mph - N/A   Scattered Clouds
8:20 PM 53.6 °F - 44.6 °F 72% 30.21 in 6.2 mi NW 4.6 mph - N/A   Scattered Clouds
8:50 PM 51.8 °F - 46.4 °F 82% 30.21 in 6.2 mi Variable 2.3 mph - N/A   Scattered Clouds
9:20 PM 51.8 °F - 44.6 °F 76% 30.21 in 6.2 mi West 6.9 mph - N/A   Scattered Clouds
9:50 PM 51.8 °F - 42.8 °F 71% 30.21 in 6.2 mi West 8.1 mph - N/A   Scattered Clouds
10:20 PM 50.0 °F - 44.6 °F 82% 30.21 in 6.2 mi West 6.9 mph - N/A   Unknown
10:50 PM 50.0 °F - 44.6 °F 82% 30.24 in 6.2 mi West 5.8 mph - N/A   Unknown
11:20 PM 48.2 °F - 42.8 °F 82% 30.24 in 6.2 mi West 4.6 mph - N/A   Unknown
11:50 PM 46.4 °F 45.2 °F 42.8 °F 87% 30.24 in 6.2 mi SSE 3.5 mph - N/A   Unknown